Change the Weather History Date:

Monday, August 6, 2012

  Actual Average Record
Temperature  
Mean Temperature 70 °F 69 °F  
Max Temperature 77 °F 78 °F 103 °F (1918)
Min Temperature 64 °F 60 °F 41 °F (1957)
Degree Days  
Heating Degree Days 0 1  
Month to date heating degree days 2  
Since 1 June heating degree days 89  
Since 1 July heating degree days 15  
Cooling Degree Days 4 5  
Month to date cooling degree days 30  
Year to date cooling degree days 273  
Since 1 June cooling degree days 255  
Growing Degree Days 20 (Base 50)    
Moisture  
Dew Point 62 °F    
Average Humidity 83    
Maximum Humidity 100    
Minimum Humidity 48    
Precipitation  
Precipitation 0.00 in 0.12 in 1.88 in (2000)
Month to date precipitation 0.72  
Year to date precipitation 21.21  
Sea Level Pressure  
Sea Level Pressure 30.12 in    
Wind  
Wind Speed 5 mph (West)    
Max Wind Speed 12 mph    
Max Gust Speed 17 mph    
Visibility 5 miles    
Events Fog    
T = Trace of Precipitation, MM = Missing Value Source: NWS Daily Summary

Daily Weather History Graph

Daily Weather History Graph

Search for Another Location

Airport or City:

Trip Planner

Search our weather history database for the weather conditions in past years. The results will help you decide how hot, cold, wet, or windy it might be!

Date:

Astronomy

Aug. 06, 2012 Rise Set
Actual Time 6:18 AM EDT 8:23 PM EDT
Civil Twilight 5:48 AM EDT 8:53 PM EDT
Nautical Twilight 5:11 AM EDT 9:29 PM EDT
Astronomical Twilight 4:31 AM EDT 10:09 PM EDT
Moon 10:30 PM EDT 11:06 AM EDT
Length of Visible Light 15h 05m
Length of Day
14h 05m
Waning Gibbous, 78% of the Moon is Illuminated
Aug 6
Waning Gibbous
Aug 9
Last Quarter
Aug 17
New
Aug 24
First Quarter
Aug 31
Full

Hourly Weather History & Observations

Time (EDT) Temp. Dew Point Humidity Pressure Visibility Wind Dir Wind Speed Gust Speed Precip Events Conditions
12:54 AM 68.0 °F 66.9 °F 96% 30.09 in 3.0 mi West 6.9 mph - N/A   Mostly Cloudy
1:54 AM 68.0 °F 66.9 °F 96% 30.09 in 4.0 mi West 5.8 mph - N/A   Mostly Cloudy
2:54 AM 68.0 °F 66.9 °F 96% 30.09 in 3.0 mi West 5.8 mph - N/A   Overcast
3:23 AM 66.2 °F 66.2 °F 100% 30.13 in 2.0 mi WSW 5.8 mph - N/A   Mostly Cloudy
3:26 AM 66.2 °F 66.2 °F 100% 30.13 in 0.8 mi West 4.6 mph - N/A   Overcast
3:40 AM 66.2 °F 66.2 °F 100% 30.13 in 2.0 mi WNW 5.8 mph - N/A   Mostly Cloudy
3:51 AM 66.2 °F 66.2 °F 100% 30.13 in 2.5 mi West 5.8 mph - N/A   Mostly Cloudy
3:54 AM 66.9 °F 66.0 °F 97% 30.09 in 2.5 mi West 5.8 mph - N/A   Mostly Cloudy
4:00 AM 66.2 °F 66.2 °F 100% 30.13 in 1.8 mi West 5.8 mph - N/A   Mostly Cloudy
4:22 AM 66.2 °F 64.4 °F 94% 30.13 in 3.0 mi WNW 5.8 mph - N/A   Mostly Cloudy
4:30 AM 66.2 °F 64.4 °F 94% 30.12 in 4.0 mi WNW 4.6 mph - N/A   Scattered Clouds
4:54 AM 66.0 °F 64.9 °F 96% 30.09 in 4.0 mi West 4.6 mph - N/A   Clear
5:44 AM 64.4 °F 64.4 °F 100% 30.12 in 2.5 mi West 4.6 mph - N/A   Partly Cloudy
5:54 AM 64.9 °F 64.0 °F 97% 30.09 in 3.0 mi West 4.6 mph - N/A   Scattered Clouds
6:05 AM 64.4 °F 64.4 °F 100% 30.13 in 4.0 mi Calm Calm - N/A   Mostly Cloudy
6:23 AM 64.4 °F 64.4 °F 100% 30.13 in 3.0 mi Calm Calm - N/A   Overcast
6:34 AM 66.2 °F 64.4 °F 94% 30.14 in 1.8 mi Calm Calm - N/A   Overcast
6:45 AM 64.4 °F 64.4 °F 100% 30.14 in 0.2 mi Calm Calm - N/A Fog Fog
6:54 AM 64.9 °F 64.0 °F 97% 30.10 in 0.2 mi Calm Calm - N/A Fog Fog
7:08 AM 64.4 °F 64.4 °F 100% 30.14 in 0.5 mi Calm Calm - N/A Fog Fog
7:19 AM 66.2 °F 64.4 °F 94% 30.15 in 1.8 mi WNW 5.8 mph - N/A   Overcast
7:54 AM 66.0 °F 64.9 °F 96% 30.14 in 1.8 mi West 4.6 mph - N/A   Mostly Cloudy
8:00 AM 66.2 °F 64.4 °F 94% 30.17 in 2.0 mi WSW 3.5 mph - N/A   Overcast
8:04 AM 66.2 °F 64.4 °F 94% 30.17 in 1.5 mi WSW 3.5 mph - N/A   Overcast
8:19 AM 66.2 °F 64.4 °F 94% 30.17 in 2.5 mi West 4.6 mph - N/A   Mostly Cloudy
8:23 AM 66.2 °F 64.4 °F 94% 30.17 in 3.0 mi West 3.5 mph - N/A   Mostly Cloudy
8:54 AM 66.9 °F 64.0 °F 90% 30.14 in 5.0 mi WSW 4.6 mph - N/A   Mostly Cloudy
9:08 AM 66.2 °F 64.4 °F 94% 30.17 in 5.0 mi West 4.6 mph - N/A   Scattered Clouds
9:25 AM 68.0 °F 64.4 °F 88% 30.17 in 7.0 mi WSW 5.8 mph - N/A   Mostly Cloudy
9:37 AM 69.8 °F 62.6 °F 78% 30.17 in 8.0 mi WSW 4.6 mph - N/A   Mostly Cloudy
9:54 AM 70.0 °F 64.0 °F 81% 30.13 in 8.0 mi West 5.8 mph - N/A   Scattered Clouds
10:54 AM 71.1 °F 63.0 °F 75% 30.14 in 10.0 mi WSW 8.1 mph - N/A   Scattered Clouds
11:54 AM 72.0 °F 60.1 °F 66% 30.13 in 10.0 mi WNW 5.8 mph - N/A   Scattered Clouds
12:54 PM 73.9 °F 55.9 °F 53% 30.13 in 10.0 mi WNW 9.2 mph 17.3 mph N/A   Clear
1:54 PM 75.0 °F 55.9 °F 51% 30.12 in 10.0 mi WNW 9.2 mph - N/A   Partly Cloudy
2:54 PM 75.0 °F 55.0 °F 50% 30.11 in 10.0 mi West 9.2 mph - N/A   Clear
3:54 PM 75.0 °F 55.0 °F 50% 30.09 in 10.0 mi WNW 10.4 mph - N/A   Clear
4:54 PM 75.9 °F 55.0 °F 48% 30.07 in 10.0 mi West 10.4 mph - N/A   Clear
5:54 PM 75.0 °F 54.0 °F 48% 30.07 in 10.0 mi NW 11.5 mph - N/A   Clear
6:54 PM 73.9 °F 55.0 °F 52% 30.06 in 10.0 mi WNW 8.1 mph - N/A   Clear
7:54 PM 71.1 °F 54.0 °F 55% 30.07 in 10.0 mi NNW 4.6 mph - N/A   Clear
8:54 PM 68.0 °F 53.1 °F 59% 30.08 in 10.0 mi North 4.6 mph - N/A   Clear
9:54 PM 68.0 °F 53.1 °F 59% 30.08 in 10.0 mi North 3.5 mph - N/A   Clear
10:54 PM 66.9 °F 53.1 °F 61% 30.07 in 10.0 mi Calm Calm - N/A   Clear
11:54 PM 64.9 °F 54.0 °F 68% 30.07 in 10.0 mi Calm Calm - N/A   Clear